Time,TemperatureF,DewpointF,PressureIn,WindDirection,WindDirectionDegrees,WindSpeedMPH,WindSpeedGustMPH,Humidity,HourlyPrecipIn,Conditions,Clouds,dailyrainin,SoftwareType,DateUTC
2013-03-31 00:13:00,46.4,30.7,29.91,SSE,157,1.7,-999.0,54,-99.99,,,0.00,Acu-Link.com,2013-03-31 04:13:00,
2013-03-31 00:28:00,47.1,32.2,29.90,South,180,3.7,-999.0,56,-99.99,,,0.00,Acu-Link.com,2013-03-31 04:28:00,
2013-03-31 00:43:00,47.8,32.9,29.90,South,180,3.2,-999.0,56,-99.99,,,0.00,Acu-Link.com,2013-03-31 04:43:00,
2013-03-31 00:59:00,46.9,33.3,29.90,SSE,157,1.1,-999.0,59,-99.99,,,0.00,Acu-Link.com,2013-03-31 04:59:00,
2013-03-31 01:14:00,48.0,34.4,29.88,SSW,202,1.7,-999.0,59,-99.99,,,0.00,Acu-Link.com,2013-03-31 05:14:00,
2013-03-31 01:29:00,48.6,34.9,29.87,South,180,2.7,-999.0,59,-99.99,,,0.00,Acu-Link.com,2013-03-31 05:29:00,
2013-03-31 01:45:00,48.9,35.2,29.87,South,180,2.7,-999.0,59,-99.99,,,0.00,Acu-Link.com,2013-03-31 05:45:00,
2013-03-31 02:00:00,49.3,35.6,29.86,South,180,6.3,-999.0,59,-99.99,,,0.00,Acu-Link.com,2013-03-31 06:00:00,
2013-03-31 02:15:00,48.9,36.1,29.86,South,180,4.2,-999.0,61,-99.99,,,0.00,Acu-Link.com,2013-03-31 06:15:00,
2013-03-31 02:30:00,48.7,36.7,29.86,SE,135,5.3,-999.0,63,-99.99,,,0.00,Acu-Link.com,2013-03-31 06:30:00,
2013-03-31 02:45:00,48.2,37.4,29.85,SSW,202,2.2,-999.0,66,-99.99,,,0.00,Acu-Link.com,2013-03-31 06:45:00,
2013-03-31 03:00:00,48.0,37.2,29.84,SE,135,5.3,-999.0,66,-99.99,,,0.00,Acu-Link.com,2013-03-31 07:00:00,
2013-03-31 03:16:00,48.2,38.5,29.84,SSE,157,5.8,-999.0,69,-99.99,,,0.00,Acu-Link.com,2013-03-31 07:16:00,
2013-03-31 03:46:00,48.4,39.8,29.83,NW,315,4.2,-999.0,72,-99.99,,,0.00,Acu-Link.com,2013-03-31 07:46:00,
2013-03-31 04:01:00,48.0,39.8,29.81,South,180,6.3,-999.0,73,-99.99,,,0.00,Acu-Link.com,2013-03-31 08:01:00,
2013-03-31 04:16:00,48.0,39.8,29.82,SW,225,4.2,-999.0,73,-99.99,,,0.00,Acu-Link.com,2013-03-31 08:16:00,
2013-03-31 04:32:00,48.0,40.5,29.82,SW,225,12.5,-999.0,75,-99.99,,,0.00,Acu-Link.com,2013-03-31 08:32:00,
2013-03-31 04:47:00,47.5,41.6,29.82,SSW,202,7.8,-999.0,80,-99.99,,,0.00,Acu-Link.com,2013-03-31 08:47:00,
2013-03-31 05:02:00,46.8,42.2,29.81,South,180,4.7,-999.0,84,-99.99,,,0.00,Acu-Link.com,2013-03-31 09:02:00,
2013-03-31 05:17:00,46.4,43.0,29.80,South,180,5.3,-999.0,88,-99.99,,,0.01,Acu-Link.com,2013-03-31 09:17:00,
2013-03-31 05:47:00,45.9,44.0,29.79,WSW,247,5.3,-999.0,93,-99.99,,,0.04,Acu-Link.com,2013-03-31 09:47:00,
2013-03-31 06:02:00,45.7,43.8,29.78,South,180,8.3,-999.0,93,-99.99,,,0.06,Acu-Link.com,2013-03-31 10:02:00,
2013-03-31 06:18:00,45.7,44.1,29.78,SSW,202,7.3,-999.0,94,-99.99,,,0.08,Acu-Link.com,2013-03-31 10:18:00,
2013-03-31 06:33:00,45.5,43.9,29.77,SSE,157,3.2,-999.0,94,-99.99,,,0.11,Acu-Link.com,2013-03-31 10:33:00,
2013-03-31 06:48:00,45.1,43.5,29.76,ENE,67,1.7,-999.0,94,-99.99,,,0.14,Acu-Link.com,2013-03-31 10:48:00,
2013-03-31 07:03:00,45.0,43.4,29.76,ENE,67,3.7,-999.0,94,-99.99,,,0.15,Acu-Link.com,2013-03-31 11:03:00,
2013-03-31 07:18:00,45.1,43.8,29.75,ESE,112,1.7,-999.0,95,-99.99,,,0.15,Acu-Link.com,2013-03-31 11:18:00,
2013-03-31 07:33:00,45.5,44.4,29.75,East,90,4.2,-999.0,96,-99.99,,,0.17,Acu-Link.com,2013-03-31 11:33:00,
2013-03-31 07:49:00,45.5,44.7,29.74,ESE,112,4.7,-999.0,97,-99.99,,,0.17,Acu-Link.com,2013-03-31 11:49:00,
2013-03-31 08:04:00,45.0,44.5,29.75,East,90,4.7,-999.0,98,-99.99,,,0.17,Acu-Link.com,2013-03-31 12:04:00,
2013-03-31 08:19:00,44.4,44.1,29.75,ESE,112,3.7,-999.0,99,-99.99,,,0.18,Acu-Link.com,2013-03-31 12:19:00,
2013-03-31 08:34:00,44.2,43.9,29.73,East,90,4.2,-999.0,99,-99.99,,,0.18,Acu-Link.com,2013-03-31 12:34:00,
2013-03-31 08:50:00,44.6,44.3,29.73,ENE,67,2.2,-999.0,99,-99.99,,,0.18,Acu-Link.com,2013-03-31 12:50:00,
2013-03-31 09:05:00,45.1,44.8,29.73,ESE,112,2.2,-999.0,99,-99.99,,,0.18,Acu-Link.com,2013-03-31 13:05:00,
2013-03-31 09:20:00,45.5,45.2,29.72,SE,135,3.2,-999.0,99,-99.99,,,0.18,Acu-Link.com,2013-03-31 13:20:00,
2013-03-31 09:35:00,45.9,45.6,29.72,ESE,112,3.2,-999.0,99,-99.99,,,0.18,Acu-Link.com,2013-03-31 13:35:00,
2013-03-31 09:51:00,46.0,45.7,29.71,SSE,157,3.7,-999.0,99,-99.99,,,0.18,Acu-Link.com,2013-03-31 13:51:00,
2013-03-31 10:21:00,47.3,46.5,29.70,SSE,157,3.7,-999.0,97,-99.99,,,0.18,Acu-Link.com,2013-03-31 14:21:00,
2013-03-31 10:36:00,46.9,46.4,29.71,South,180,2.7,-999.0,98,-99.99,,,0.18,Acu-Link.com,2013-03-31 14:36:00,
2013-03-31 10:52:00,46.9,46.4,29.71,SE,135,6.3,-999.0,98,-99.99,,,0.18,Acu-Link.com,2013-03-31 14:52:00,
2013-03-31 11:07:00,46.8,46.3,29.71,South,180,5.8,-999.0,98,-99.99,,,0.18,Acu-Link.com,2013-03-31 15:07:00,
2013-03-31 11:22:00,48.4,47.3,29.70,SSW,202,5.3,-999.0,96,-99.99,,,0.18,Acu-Link.com,2013-03-31 15:22:00,
2013-03-31 11:53:00,52.3,49.2,29.68,SSW,202,6.3,-999.0,89,-99.99,,,0.18,Acu-Link.com,2013-03-31 15:53:00,
2013-03-31 12:08:00,53.4,48.4,29.68,WSW,247,11.9,-999.0,83,-99.99,,,0.18,Acu-Link.com,2013-03-31 16:08:00,
2013-03-31 12:23:00,54.9,48.8,29.66,SSW,202,10.4,-999.0,80,-99.99,,,0.18,Acu-Link.com,2013-03-31 16:23:00,
2013-03-31 12:38:00,55.6,48.8,29.67,WNW,292,10.4,-999.0,78,-99.99,,,0.18,Acu-Link.com,2013-03-31 16:38:00,
2013-03-31 12:53:00,55.6,48.5,29.66,West,270,20.2,-999.0,77,-99.99,,,0.18,Acu-Link.com,2013-03-31 16:53:00,
2013-03-31 13:08:00,56.5,49.0,29.64,West,270,15.0,-999.0,76,-99.99,,,0.18,Acu-Link.com,2013-03-31 17:08:00,
2013-03-31 13:23:00,57.0,48.8,29.64,WSW,247,14.0,-999.0,74,-99.99,,,0.18,Acu-Link.com,2013-03-31 17:23:00,
2013-03-31 13:38:00,54.7,48.0,29.64,SW,225,17.6,-999.0,78,-99.99,,,0.18,Acu-Link.com,2013-03-31 17:38:00,
2013-03-31 13:53:00,54.9,48.2,29.64,West,270,14.0,-999.0,78,-99.99,,,0.18,Acu-Link.com,2013-03-31 17:53:00,
2013-03-31 14:09:00,54.3,47.9,29.65,West,270,8.3,-999.0,79,-99.99,,,0.18,Acu-Link.com,2013-03-31 18:09:00,
2013-03-31 14:24:00,54.5,48.1,29.65,West,270,6.8,-999.0,79,-99.99,,,0.18,Acu-Link.com,2013-03-31 18:24:00,
2013-03-31 14:39:00,54.3,47.9,29.65,WSW,247,9.9,-999.0,79,-99.99,,,0.18,Acu-Link.com,2013-03-31 18:39:00,
2013-03-31 14:54:00,54.7,48.3,29.65,West,270,9.4,-999.0,79,-99.99,,,0.18,Acu-Link.com,2013-03-31 18:54:00,
2013-03-31 15:09:00,54.9,48.2,29.65,West,270,9.9,-999.0,78,-99.99,,,0.18,Acu-Link.com,2013-03-31 19:09:00,
2013-03-31 15:24:00,54.9,48.2,29.67,SSW,202,10.4,-999.0,78,-99.99,,,0.18,Acu-Link.com,2013-03-31 19:24:00,
2013-03-31 15:54:00,56.3,48.5,29.65,WSW,247,9.4,-999.0,75,-99.99,,,0.18,Acu-Link.com,2013-03-31 19:54:00,
2013-03-31 16:09:00,56.7,47.8,29.65,SW,225,14.5,-999.0,72,-99.99,,,0.18,Acu-Link.com,2013-03-31 20:09:00,
2013-03-31 16:24:00,57.6,47.5,29.65,West,270,15.5,-999.0,69,-99.99,,,0.18,Acu-Link.com,2013-03-31 20:24:00,
2013-03-31 16:39:00,57.4,46.5,29.64,West,270,13.0,-999.0,67,-99.99,,,0.18,Acu-Link.com,2013-03-31 20:39:00,
2013-03-31 16:54:00,57.4,45.7,29.64,West,270,14.5,-999.0,65,-99.99,,,0.18,Acu-Link.com,2013-03-31 20:54:00,
2013-03-31 17:09:00,57.6,45.9,29.64,WSW,247,19.7,-999.0,65,-99.99,,,0.18,Acu-Link.com,2013-03-31 21:09:00,
2013-03-31 17:25:00,56.5,45.3,29.64,West,270,14.5,-999.0,66,-99.99,,,0.18,Acu-Link.com,2013-03-31 21:25:00,
2013-03-31 17:40:00,56.8,45.2,29.64,WSW,247,17.6,-999.0,65,-99.99,,,0.18,Acu-Link.com,2013-03-31 21:40:00,
2013-03-31 17:55:00,56.7,45.5,29.64,West,270,9.4,-999.0,66,-99.99,,,0.18,Acu-Link.com,2013-03-31 21:55:00,
2013-03-31 18:11:00,56.5,45.3,29.64,West,270,9.4,-999.0,66,-99.99,,,0.18,Acu-Link.com,2013-03-31 22:11:00,
2013-03-31 18:26:00,55.8,45.0,29.64,West,270,10.4,-999.0,67,-99.99,,,0.18,Acu-Link.com,2013-03-31 22:26:00,
2013-03-31 18:41:00,55.2,45.2,29.64,West,270,7.8,-999.0,69,-99.99,,,0.18,Acu-Link.com,2013-03-31 22:41:00,
2013-03-31 19:26:00,54.5,44.9,29.63,SW,225,13.0,-999.0,70,-99.99,,,0.18,Acu-Link.com,2013-03-31 23:26:00,
2013-03-31 19:42:00,54.1,44.5,29.64,WSW,247,10.9,-999.0,70,-99.99,,,0.18,Acu-Link.com,2013-03-31 23:42:00,
2013-03-31 19:57:00,54.0,44.1,29.64,WSW,247,9.9,-999.0,69,-99.99,,,0.18,Acu-Link.com,2013-03-31 23:57:00,
2013-03-31 20:12:00,53.8,44.2,29.64,West,270,6.8,-999.0,70,-99.99,,,0.18,Acu-Link.com,2013-04-01 00:12:00,
2013-03-31 20:27:00,52.5,43.7,29.64,WSW,247,5.8,-999.0,72,-99.99,,,0.18,Acu-Link.com,2013-04-01 00:27:00,
2013-03-31 20:42:00,52.2,43.8,29.65,WSW,247,6.3,-999.0,73,-99.99,,,0.18,Acu-Link.com,2013-04-01 00:42:00,
2013-03-31 20:57:00,51.1,43.5,29.65,WSW,247,5.3,-999.0,75,-99.99,,,0.18,Acu-Link.com,2013-04-01 00:57:00,
2013-03-31 21:12:00,50.5,43.2,29.66,WSW,247,8.3,-999.0,76,-99.99,,,0.18,Acu-Link.com,2013-04-01 01:12:00,
2013-03-31 21:28:00,50.4,43.5,29.66,WSW,247,6.3,-999.0,77,-99.99,,,0.18,Acu-Link.com,2013-04-01 01:28:00,
2013-03-31 21:43:00,50.2,43.6,29.66,West,270,7.3,-999.0,78,-99.99,,,0.18,Acu-Link.com,2013-04-01 01:43:00,
2013-03-31 21:58:00,49.6,43.4,29.66,WSW,247,6.8,-999.0,79,-99.99,,,0.18,Acu-Link.com,2013-04-01 01:58:00,
2013-03-31 22:13:00,49.5,43.6,29.66,SW,225,6.3,-999.0,80,-99.99,,,0.18,Acu-Link.com,2013-04-01 02:13:00,
2013-03-31 22:29:00,48.7,43.5,29.67,West,270,6.3,-999.0,82,-99.99,,,0.18,Acu-Link.com,2013-04-01 02:29:00,
2013-03-31 22:44:00,48.9,44.0,29.67,West,270,7.3,-999.0,83,-99.99,,,0.18,Acu-Link.com,2013-04-01 02:44:00,
2013-03-31 22:59:00,49.3,44.4,29.67,West,270,6.8,-999.0,83,-99.99,,,0.18,Acu-Link.com,2013-04-01 02:59:00,
2013-03-31 23:14:00,49.1,44.5,29.67,West,270,5.8,-999.0,84,-99.99,,,0.18,Acu-Link.com,2013-04-01 03:14:00,
2013-03-31 23:29:00,48.9,44.3,29.68,West,270,5.8,-999.0,84,-99.99,,,0.18,Acu-Link.com,2013-04-01 03:29:00,
2013-03-31 23:44:00,48.6,44.3,29.67,West,270,4.2,-999.0,85,-99.99,,,0.18,Acu-Link.com,2013-04-01 03:44:00,